Date String (YYYY-MM-DD hh:mm:ss) UTC,Instrument flags,Ambient pressure (hPa),Sample flow (lpm),Bypass flow (lpm),Sample temperature (°C),Ambient temperature (°C),ASC tube jacket temperature (°C),LED temperature (°C),Box temperature (°C),Sample RH (%),Span deviation,Mass concentration (μg/m³),Mass concentration (μg/m³),Mass concentration (μg/m³)
DateTimeUTC,F1_M11,P_M11,Q1_M11,Q2_M11,T1_M11,T2_M11,T3_M11,T4_M11,T5_M11,U1_M11,ZSPAN_M11,X0_M11,X2_M11,X1_M11
2023-05-13 02:00:00,,0833.8,5.01,0.00,28.3,26.3,00.0,36.9,29.8,24.7,0000.0,0001.86,0000.44,0000.23
2023-05-13 02:01:00,,0833.8,4.99,0.00,28.3,26.2,00.0,36.8,29.8,24.4,0000.0,0001.77,0000.45,0000.23
2023-05-13 02:02:00,,0833.8,5.00,0.00,28.2,26.2,00.0,36.8,29.7,25.4,0000.0,0001.73,0000.45,0000.23
2023-05-13 02:03:00,,0833.8,5.00,0.00,28.2,26.1,00.0,36.8,29.7,25.3,0000.0,0003.03,0000.46,0000.23
2023-05-13 02:04:00,,0833.8,5.00,0.00,28.2,26.1,00.0,36.8,29.6,25.5,0000.0,0004.10,0000.50,0000.24
2023-05-13 02:05:00,,0833.8,5.00,0.00,28.1,26.0,00.0,36.8,29.6,25.2,0000.0,0003.36,0000.54,0000.25
2023-05-13 02:06:00,,0833.8,5.00,0.00,28.1,26.0,00.0,36.7,29.6,24.5,0000.0,0003.31,0000.54,0000.25
2023-05-13 02:07:00,,0833.8,5.00,0.00,28.1,25.9,00.0,36.7,29.5,24.8,0000.0,0003.34,0000.55,0000.25
2023-05-13 02:08:00,,0833.8,5.00,0.00,28.0,25.9,00.0,36.7,29.5,25.1,0000.0,0003.40,0000.56,0000.26
2023-05-13 02:09:00,,0833.8,5.00,0.00,28.0,25.9,00.0,36.7,29.5,25.4,0000.0,0003.49,0000.57,0000.26
2023-05-13 02:10:00,,0833.8,5.01,0.00,28.0,25.9,00.0,36.6,29.5,25.4,0000.0,0003.47,0000.55,0000.26
2023-05-13 02:11:00,,0833.8,5.00,0.00,27.9,25.9,00.0,36.6,29.5,25.4,0000.0,0003.58,0000.57,0000.26
2023-05-13 02:12:00,,0833.9,4.99,0.00,27.9,25.8,00.0,36.6,29.4,25.6,0000.0,0003.51,0000.55,0000.26
2023-05-13 02:13:00,,0833.9,5.00,0.00,27.9,25.8,00.0,36.6,29.4,25.7,0000.0,0003.54,0000.56,0000.27
2023-05-13 02:14:00,,0833.9,5.00,0.00,27.9,25.8,00.0,36.5,29.4,25.7,0000.0,0002.30,0000.57,0000.27
2023-05-13 02:15:00,,0833.9,4.99,0.00,27.9,25.8,00.0,36.5,29.4,25.7,0000.0,0001.30,0000.56,0000.27
2023-05-13 02:16:00,,0834.0,4.99,0.00,27.8,25.7,00.0,36.5,29.3,25.6,0000.0,0001.23,0000.53,0000.26
2023-05-13 02:17:00,,0834.0,5.00,0.00,27.8,25.7,00.0,36.5,29.3,25.4,0000.0,0001.21,0000.53,0000.26
2023-05-13 02:18:00,,0833.9,5.00,0.00,27.8,25.7,00.0,36.4,29.3,24.8,0000.0,0001.18,0000.52,0000.26
2023-05-13 02:19:00,,0833.9,5.00,0.00,27.8,25.7,00.0,36.4,29.3,24.6,0000.0,0001.10,0000.49,0000.26
2023-05-13 02:20:00,,0834.0,5.00,0.00,27.7,25.7,00.0,36.4,29.3,24.8,0000.0,0001.09,0000.49,0000.26
2023-05-13 02:21:00,,0834.0,4.99,0.00,27.7,25.7,00.0,36.4,29.3,24.9,0000.0,0001.02,0000.47,0000.25
2023-05-13 02:22:00,,0834.0,5.00,0.00,27.7,25.7,00.0,36.3,29.3,24.8,0000.0,0000.91,0000.45,0000.25
2023-05-13 02:23:00,,0834.0,5.00,0.00,27.7,25.7,00.0,36.3,29.2,24.7,0000.0,0000.95,0000.46,0000.25
2023-05-13 02:24:00,,0834.1,5.00,0.00,27.7,25.7,00.0,36.3,29.2,24.7,0000.0,0000.98,0000.46,0000.25
2023-05-13 02:25:00,,0834.1,5.01,0.00,27.7,25.7,00.0,36.3,29.2,25.1,0000.0,0001.02,0000.47,0000.25
2023-05-13 02:26:00,,0834.1,5.00,0.00,27.7,25.7,00.0,36.3,29.2,25.7,0000.0,0001.04,0000.47,0000.25
2023-05-13 02:27:00,,0834.1,5.00,0.00,27.7,25.8,00.0,36.2,29.3,25.8,0000.0,0001.06,0000.47,0000.25
2023-05-13 02:28:00,,0834.1,5.00,0.00,27.7,25.9,00.0,36.2,29.3,25.8,0000.0,0001.08,0000.47,0000.25
2023-05-13 02:29:00,,0834.1,5.00,0.00,27.7,25.9,00.0,36.2,29.3,25.5,0000.0,0001.04,0000.45,0000.25
2023-05-13 02:30:00,,0834.1,5.00,0.00,27.7,25.9,00.0,36.2,29.3,25.0,0000.0,0001.07,0000.47,0000.25
2023-05-13 02:31:00,,0834.2,5.00,0.00,27.7,25.9,00.0,36.2,29.3,25.1,0000.0,0001.01,0000.47,0000.25
2023-05-13 02:32:00,,0834.2,5.00,0.00,27.7,25.9,00.0,36.2,29.3,25.6,0000.0,0001.03,0000.48,0000.25
2023-05-13 02:33:00,,0834.2,5.00,0.00,27.7,25.9,00.0,36.2,29.3,25.9,0000.0,0002.11,0000.49,0000.26
2023-05-13 02:34:00,,0834.2,5.00,0.00,27.7,26.0,00.0,36.2,29.3,26.1,0000.0,0003.47,0000.48,0000.25
2023-05-13 02:35:00,,0834.4,5.00,0.00,27.7,26.0,00.0,36.2,29.3,25.9,0000.0,0003.61,0000.46,0000.25
2023-05-13 02:36:00,,0834.5,4.99,0.00,27.7,26.0,00.0,36.2,29.3,25.8,0000.0,0003.58,0000.47,0000.26
2023-05-13 02:37:00,,0834.2,5.00,0.00,27.7,26.0,00.0,36.2,29.3,25.9,0000.0,0003.56,0000.48,0000.26
2023-05-13 02:38:00,,0834.2,5.00,0.00,27.7,26.0,00.0,36.2,29.3,25.7,0000.0,0003.56,0000.48,0000.26
2023-05-13 02:39:00,,0834.3,5.00,0.00,27.7,26.0,00.0,36.2,29.3,25.3,0000.0,0003.54,0000.48,0000.26
2023-05-13 02:40:00,,0834.5,5.00,0.00,27.7,26.0,00.0,36.2,29.2,25.0,0000.0,0003.60,0000.52,0000.27
2023-05-13 02:41:00,,0834.3,4.99,0.00,27.7,25.9,00.0,36.1,29.2,25.0,0000.0,0003.59,0000.52,0000.27
2023-05-13 02:42:00,,0834.5,4.99,0.00,27.6,25.8,00.0,36.1,29.2,24.9,0000.0,0003.55,0000.50,0000.28
2023-05-13 02:43:00,,0834.5,5.00,0.00,27.6,25.7,00.0,36.1,29.1,24.7,0000.0,0003.53,0000.50,0000.28
2023-05-13 02:44:00,,0834.6,5.01,0.00,27.6,25.6,00.0,36.1,29.1,24.6,0000.0,0002.43,0000.51,0000.28
2023-05-13 02:45:00,,0834.5,5.01,0.00,27.5,25.6,00.0,36.1,29.0,24.5,0000.0,0001.18,0000.53,0000.28
2023-05-13 02:46:00,,0834.4,5.00,0.00,27.5,25.5,00.0,36.1,29.0,24.4,0000.0,0001.08,0000.56,0000.28
2023-05-13 02:47:00,,0834.4,5.00,0.00,27.5,25.4,00.0,36.1,28.9,24.5,0000.0,0001.09,0000.55,0000.28
2023-05-13 02:48:00,,0834.4,5.00,0.00,27.4,25.3,00.0,36.0,28.9,24.5,0000.0,0001.05,0000.53,0000.29
2023-05-13 02:49:00,,0834.3,5.00,0.00,27.4,25.3,00.0,36.0,28.9,24.7,0000.0,0001.08,0000.54,0000.29
2023-05-13 02:50:00,,0834.4,5.00,0.00,27.4,25.3,00.0,36.0,28.9,24.6,0000.0,0001.11,0000.55,0000.30
2023-05-13 02:51:00,,0834.5,5.00,0.00,27.4,25.4,00.0,36.0,28.9,24.6,0000.0,0001.10,0000.54,0000.30
2023-05-13 02:52:00,,0834.5,5.00,0.00,27.3,25.4,00.0,36.0,28.9,24.9,0000.0,0001.13,0000.55,0000.31
2023-05-13 02:53:00,,0834.5,4.99,0.00,27.4,25.5,00.0,35.9,28.9,25.2,0000.0,0001.17,0000.56,0000.31
2023-05-13 02:54:00,,0834.5,5.00,0.00,27.4,25.5,00.0,35.9,29.0,25.3,0000.0,0001.28,0000.59,0000.32
2023-05-13 02:55:00,,0834.5,5.00,0.00,27.4,25.6,00.0,35.9,29.0,25.0,0000.0,0001.29,0000.57,0000.32
2023-05-13 02:56:00,,0834.4,5.00,0.00,27.4,25.6,00.0,35.9,28.9,24.4,0000.0,0001.26,0000.58,0000.33
2023-05-13 02:57:00,,0834.4,5.01,0.00,27.3,25.5,00.0,35.9,28.9,24.2,0000.0,0001.15,0000.56,0000.33
2023-05-13 02:58:00,,0834.4,4.99,0.00,27.3,25.4,00.0,35.9,28.8,24.1,0000.0,0001.07,0000.53,0000.34
2023-05-13 02:59:00,,0834.4,4.99,0.00,27.3,25.4,00.0,35.9,28.8,24.2,0000.0,0001.05,0000.53,0000.34
